[[[{"header":{"parameterUnit":"kt","parameterCategory":2,"dx":1,"dy":1,"la1":30.253999710083008,"la2":30.299108505249023,"lo1":-89.0895004272461,"lo2":-89.04439544677734,"nx":28,"ny":28,"refTime":"2022-09-20T15:00:00:Z","depth":0,"parameterNumber":1,"parameterNumberName":"U-component_of_WINDS"},"data":[-4.2166,-4.2066,-4.1853,-4.1635,-4.1404,-4.1215,-4.1077,-4.0875,-4.0656,-4.0397,-4.0207,-3.9972,-3.966,-3.9374,-3.915,-3.9047,-3.8969,-3.9092,-3.895,-3.8608,-3.8546,-3.8487,-3.8501,-3.9077,-3.9078,-3.9336,-3.9339,-3.9341,-4.1933,-4.1708,-4.1531,-4.1214,-4.1057,-4.081,-4.0533,-4.0417,-4.0251,-3.998,-3.9782,-3.9532,-3.9304,-3.894,-3.868,-3.8617,-3.8483,-3.8563,-3.8565,-3.8519,-3.8145,-3.8162,-3.8676,-3.8676,-3.8676,-3.8676,-3.8676,-3.8676,-4.145,-4.1399,-4.1083,-4.0886,-4.0666,-4.0452,-4.0361,-4.0077,-3.9894,-3.9605,-3.9374,-3.9178,-3.8858,-3.8434,-3.8235,-3.8069,-3.7939,-3.7955,-3.7959,-3.797,-3.8014,-3.7673,-3.8013,-3.801,-3.8008,-3.8006,-3.8005,0,-4.1031,-4.0856,-4.0671,-4.0423,-4.0266,-4.005,-3.9813,-3.9749,-3.929,-3.9157,-3.8944,-3.8783,-3.846,-3.8229,-3.7933,-3.7717,-3.744,-3.7386,-3.7396,-3.751,-3.7649,-3.7575,-3.6977,-3.7378,-3.7372,-3.7367,-3.7364,-3.7362,-4.053,-4.0495,-4.0057,-3.9956,-3.9773,-3.9614,-3.9472,-3.907,-3.8937,-3.858,-3.8548,-3.8312,-3.8103,-3.779,-3.7446,-3.7201,-3.7063,-3.7242,-3.7024,-3.7134,-3.7066,-3.7074,-3.7066,-3.7294,-3.7303,-3.731,-3.7316,0,-4.0268,-3.9915,-3.9788,-3.9353,-3.9242,-3.9223,-3.8846,-3.8772,-3.8499,-3.8358,-3.8301,-3.7872,-3.7665,-3.7288,-3.6974,-3.6783,-3.6732,-3.6603,-3.684,-3.6795,-3.6917,-3.6912,-3.7375,-3.7414,-3.681,-3.6816,-3.6821,0,-3.9702,-3.967,-3.9142,-3.9088,-3.9034,-3.8632,-3.8588,-3.835,-3.807,-3.7955,-3.7582,-3.7481,-3.7014,-3.6855,-3.6573,-3.6464,-3.6403,-3.6251,-3.6177,-3.6286,-3.6307,-3.6208,-3.6182,-3.6009,-3.6007,-3.6005,-3.6004,0,-3.9333,-3.901,-3.8919,-3.8787,-3.8318,-3.8282,-3.8083,-3.7766,-3.763,-3.739,-3.7295,-3.7044,-3.6907,-3.6714,-3.6357,-3.6224,-3.6213,-3.5955,-3.6057,-3.6067,-3.6077,-3.6082,-3.6584,-3.6001,-3.6001,-3.6,-3.5999,0,-3.8821,-3.8598,-3.8519,-3.8118,-3.8048,-3.7986,-3.7715,-3.7574,-3.7266,-3.7086,-3.6892,-3.6598,-3.6473,-3.6245,-3.6063,-3.5992,-3.5875,-3.5716,-3.5716,-3.5684,-3.5441,-3.5778,-3.6293,-3.6333,-3.5651,-3.5648,-3.5645,0,-3.8495,-3.8321,-3.7976,-3.7907,-3.7774,-3.7366,-3.7286,-3.7026,-3.6779,-3.6624,-3.6345,-3.6171,-3.5922,-3.5814,-3.5773,-3.5479,-3.5571,-3.5454,-3.5228,-3.5225,-3.5328,-3.5796,-3.597,-3.6221,-3.5603,-3.5607,-3.5611,0,-3.8199,-3.7634,-3.7647,-3.7479,-3.7076,-3.6961,-3.6871,-3.6611,-3.6528,-3.6274,-3.6186,-3.5929,-3.5729,-3.5556,-3.5289,-3.5267,-3.5496,-3.5055,-3.504,-3.5149,-3.555,-3.5715,-3.5759,-3.532,-3.5324,-3.5328,-3.5577,0,-3.7509,-3.7375,-3.7392,-3.7039,-3.6892,-3.6828,-3.6434,-3.6329,-3.6089,-3.583,-3.5691,-3.5376,-3.5107,-3.5055,-3.482,-3.489,-3.4819,-3.4609,-3.4361,-3.4672,-3.4743,-3.4773,-3.4286,-3.4276,-3.4268,-3.4261,0,0,-3.7286,-3.7087,-3.6711,-3.6612,-3.6465,-3.6042,-3.6009,-3.5813,-3.5432,-3.5336,-3.5195,-3.4792,-3.4542,-3.4414,-3.448,-3.437,-3.4345,-3.4253,-3.4526,-3.4558,-3.4586,-3.467,-3.4707,-3.4247,-3.4244,-3.4241,-3.4238,0,-3.6954,-3.672,-3.6694,-3.6476,-3.6143,-3.587,-3.5865,-3.5457,-3.5289,-3.5153,-3.4802,-3.467,-3.436,-3.414,-3.3989,-3.4258,-3.3999,-3.4205,-3.4484,-3.4458,-3.4501,-3.4537,-3.4631,-3.467,-3.4218,-3.422,-3.422,0,-3.6592,-3.6296,-3.6243,-3.5891,-3.5668,-3.554,-3.5184,-3.5065,-3.4963,-3.4501,-3.4373,-3.4144,-3.3817,-3.3749,-3.3703,-3.3572,-3.3708,-3.3594,-3.3634,-3.3621,-3.3576,-3.3627,-3.3674,-3.3072,-3.3069,-3.3067,0,0,-3.6359,-3.6233,-3.5788,-3.579,-3.5675,-3.527,-3.5162,-3.4912,-3.4632,-3.4522,-3.4224,-3.3959,-3.3771,-3.3658,-3.3462,-3.3444,-3.3341,-3.3469,-3.3523,-3.3569,-3.3582,-3.355,-3.3601,-3.3058,-3.3058,-3.3058,0,0,-3.6244,-3.5732,-3.5542,-3.5496,-3.5246,-3.4803,-3.4817,-3.4571,-3.4357,-3.432,-3.3886,-3.3797,-3.3725,-3.3514,-3.3442,-3.3366,-3.3128,-3.3136,-3.3508,-3.357,-3.3623,-3.3676,-3.3031,0,0,0,0,0,-3.5705,-3.5795,-3.5628,-3.5562,-3.5114,-3.4898,-3.4836,-3.4485,-3.4324,-3.4342,-3.4053,-3.3783,-3.3385,-3.3312,-3.3249,-3.3334,-3.2945,-3.2965,-3.2984,-3.3456,-3.3526,-3.3585,0,0,0,0,0,0,-3.5675,-3.5597,-3.5624,-3.5194,-3.5089,-3.4891,-3.4541,-3.4447,-3.4313,-3.4264,-3.3848,-3.377,-3.3462,-3.3319,-3.3268,-3.3356,-3.3047,-3.2953,-3.297,-3.2985,-3.348,-3.3537,-3.3586,0,0,0,0,0,-3.5651,-3.5587,-3.4963,-3.5189,-3.5098,-3.4652,-3.4535,-3.4453,-3.4343,-3.3896,-3.3809,-3.409,-3.3474,-3.3406,-3.3287,-3.3388,-3.3079,-3.3062,-3.2964,-3.2977,-3.2989,-3.3508,0,0,0,0,0,0,-3.5632,-3.5508,-3.4936,-3.4895,-3.513,-3.4655,-3.4569,-3.4461,-3.3974,-3.3892,-3.4116,-3.4084,-3.3484,-3.3429,-3.3379,-3.342,-3.3106,-3.3088,-3.3077,-3.2974,-3.2985,-3.2994,0,0,0,0,0,0,-3.5539,-3.5477,-3.4914,-3.486,-3.4809,-3.4661,-3.4585,-3.4431,-3.3974,-3.422,-3.4178,-3.4107,-3.3556,-3.3446,-3.3406,-3.3179,-3.3126,-3.3109,-3.3097,-3.309,-3.2983,-3.2991,0,0,0,0,0,0,-3.5506,-3.5451,-3.4868,-3.483,-3.4784,-3.4295,-3.4517,-3.4076,-3.3936,-3.4249,-3.3913,-3.3902,-3.3581,-3.3532,-3.3426,-3.322,-3.319,-3.3126,-3.3114,-3.3106,-3.31,0,0,0,0,0,0,0,-3.5479,-3.5931,-3.5181,-3.4804,-3.4764,-3.4515,-3.4503,-3.4492,-3.3933,-3.3924,-3.3915,-3.3906,-3.3224,-3.3205,-3.3186,-3.3252,0,0,-3.3128,-3.3119,0,0,0,0,0,0,0,0,-3.5945,-3.5934,-3.518,-3.5171,-3.5163,-3.4513,-3.4504,-3.4494,-3.3932,-3.3924,-3.3917,-3.391,-3.3219,-3.3204,-3.3188,0,0,0,0,0,0,0,0,0,0,0,0,0,0,0,-3.5179,-3.5172,0,-3.4512,-3.4504,-3.4496,-3.3931,-3.3925,-3.3919,-3.3913,-3.3215,-3.3202,-3.319,0,0,0,0,0,0,0,0,0,0,0,0,0,0,0,0,0,0,0,0,0,0,0,0,0,0,0,0,0,0,0,0,0,0,0,0,0,0,0,0,0,0,0,0,0,0,0,0,0,0,0,0,0,0,0,0,0,0,0,0,0,0,0,0,0,0,0,0,0]}],[{"header":{"parameterUnit":"kt","parameterCategory":2,"dx":1,"dy":1,"la1":30.253999710083008,"la2":30.299108505249023,"lo1":-89.0895004272461,"lo2":-89.04439544677734,"nx":28,"ny":28,"refTime":"2022-09-20T15:00:00:Z","depth":0,"parameterNumber":2,"parameterNumberName":"V-component_of_WINDS"},"data":[-1.4212,-1.4293,-1.4206,-1.4259,-1.4191,-1.4214,-1.4196,-1.4163,-1.4115,-1.4135,-1.4133,-1.4056,-1.3979,-1.3959,-1.3954,-1.3922,-1.3932,-1.402,-1.397,-1.3638,-1.3587,-1.3539,-1.3516,-1.402,-1.4021,-1.433,-1.4333,-1.4335,-1.3975,-1.3907,-1.3908,-1.3853,-1.3854,-1.3713,-1.3659,-1.3672,-1.3698,-1.364,-1.3632,-1.3644,-1.3645,-1.3535,-1.3523,-1.3563,-1.3503,-1.3567,-1.357,-1.3562,-1.3201,-1.3177,-1.3617,-1.3617,-1.3617,-1.3617,-1.3617,-1.3617,-1.3521,-1.3572,-1.3487,-1.3488,-1.3436,-1.34,-1.3436,-1.3339,-1.3342,-1.3316,-1.3212,-1.3243,-1.3172,-1.3116,-1.3078,-1.3101,-1.3016,-1.3064,-1.3078,-1.3096,-1.3129,-1.2709,-1.3094,-1.3092,-1.309,-1.3089,-1.3088,0,-1.3165,-1.3089,-1.3085,-1.3055,-1.3051,-1.3021,-1.298,-1.2998,-1.2812,-1.2824,-1.2834,-1.2826,-1.2812,-1.2817,-1.2786,-1.2736,-1.2605,-1.2578,-1.2613,-1.2672,-1.2725,-1.2708,-1.2133,-1.2572,-1.2567,-1.2563,-1.2561,-1.2559,-1.2712,-1.2779,-1.2648,-1.2657,-1.2612,-1.2629,-1.2623,-1.2452,-1.2455,-1.2381,-1.2437,-1.2434,-1.2426,-1.246,-1.2356,-1.2347,-1.2287,-1.2464,-1.2286,-1.2333,-1.2302,-1.2305,-1.2315,-1.2508,-1.2515,-1.252,-1.2524,0,-1.2466,-1.2323,-1.2401,-1.2265,-1.2233,-1.2315,-1.2201,-1.2246,-1.2148,-1.2198,-1.22,-1.2052,-1.2067,-1.1931,-1.1922,-1.1852,-1.1994,-1.1927,-1.2018,-1.2002,-1.2155,-1.2147,-1.2656,-1.2717,-1.218,-1.2185,-1.2189,0,-1.2029,-1.2125,-1.1909,-1.1962,-1.2061,-1.1888,-1.1994,-1.1921,-1.1854,-1.1892,-1.1712,-1.1753,-1.1572,-1.1593,-1.149,-1.158,-1.1575,-1.1532,-1.1506,-1.1556,-1.1563,-1.1568,-1.155,-1.143,-1.1428,-1.1426,-1.1424,0,-1.167,-1.1663,-1.1745,-1.1722,-1.1591,-1.1634,-1.1582,-1.1506,-1.1504,-1.1476,-1.1474,-1.1456,-1.145,-1.144,-1.131,-1.1195,-1.1413,-1.1228,-1.137,-1.1375,-1.1438,-1.1439,-1.1909,-1.1421,-1.142,-1.1419,-1.1418,0,-1.1301,-1.1271,-1.1409,-1.1296,-1.1303,-1.1357,-1.1327,-1.134,-1.1275,-1.1212,-1.119,-1.106,-1.112,-1.0947,-1.1031,-1.0919,-1.0924,-1.0884,-1.0892,-1.0902,-1.0717,-1.1016,-1.1467,-1.1516,-1.0894,-1.089,-1.0886,0,-1.0933,-1.1033,-1.0886,-1.1022,-1.1051,-1.0848,-1.0905,-1.0852,-1.0772,-1.0788,-1.0699,-1.0721,-1.0562,-1.0552,-1.0608,-1.0525,-1.0669,-1.0498,-1.054,-1.0543,-1.0574,-1.0983,-1.1092,-1.138,-1.0827,-1.0833,-1.0838,0,-1.0633,-1.0469,-1.0504,-1.0472,-1.037,-1.0394,-1.0458,-1.0438,-1.0458,-1.0415,-1.0471,-1.0492,-1.0376,-1.036,-1.0254,-1.0322,-1.0566,-1.019,-1.0187,-1.0272,-1.0783,-1.0886,-1.0935,-1.0479,-1.0486,-1.0492,-1.0792,0,-1.0124,-1.0155,-1.0238,-1.0174,-1.0168,-1.0244,-1.0097,-1.0111,-1.0007,-0.9923,-0.9998,-0.9922,-0.991,-0.9924,-0.9826,-1.002,-0.997,-0.9848,-0.9682,-0.9947,-1.0044,-1.0082,-0.9549,-0.9543,-0.9538,-0.9534,0,0,-0.9815,-0.9856,-0.9694,-0.9749,-0.9737,-0.9528,-0.9624,-0.9587,-0.9522,-0.952,-0.9421,-0.9447,-0.9393,-0.9502,-0.9573,-0.9565,-0.959,-0.9504,-0.9819,-0.9852,-0.9881,-0.9987,-1.0028,-0.9526,-0.9524,-0.9522,-0.9521,0,-0.9601,-0.9537,-0.963,-0.9583,-0.9508,-0.9413,-0.9435,-0.9328,-0.9279,-0.9349,-0.9185,-0.9213,-0.9238,-0.9204,-0.9191,-0.9482,-0.9364,-0.9487,-0.9695,-0.9774,-0.9813,-0.9847,-0.996,-1.0001,-0.9509,-0.9509,-0.951,0,-0.9288,-0.9204,-0.9232,-0.9187,-0.9138,-0.9173,-0.8957,-0.9003,-0.9029,-0.8809,-0.8885,-0.8825,-0.8766,-0.8885,-0.8933,-0.8848,-0.9167,-0.9039,-0.9066,-0.9073,-0.9143,-0.919,-0.9232,-0.8686,-0.8684,-0.8682,0,0,-0.9125,-0.915,-0.9013,-0.9131,-0.9111,-0.8971,-0.8975,-0.8873,-0.882,-0.8801,-0.8724,-0.8682,-0.8694,-0.8708,-0.8712,-0.8861,-0.8842,-0.8943,-0.8982,-0.9014,-0.9039,-0.9119,-0.9164,-0.8673,-0.8673,-0.8673,0,0,-0.905,-0.8893,-0.8796,-0.8913,-0.8866,-0.8743,-0.8824,-0.8704,-0.8693,-0.867,-0.8506,-0.8488,-0.8595,-0.8546,-0.8445,-0.8653,-0.8489,-0.851,-0.8684,-0.8731,-0.8769,-0.8785,-0.8224,0,0,0,0,0,-0.8759,-0.891,-0.8824,-0.8822,-0.8769,-0.8789,-0.8782,-0.8647,-0.8533,-0.8599,-0.8515,-0.8385,-0.8458,-0.8365,-0.8369,-0.8486,-0.8562,-0.8581,-0.86,-0.8858,-0.8909,-0.8952,0,0,0,0,0,0,-0.8756,-0.8754,-0.8819,-0.8705,-0.8692,-0.8782,-0.8561,-0.8528,-0.8522,-0.8496,-0.8405,-0.8382,-0.8271,-0.8354,-0.8359,-0.8474,-0.8222,-0.8569,-0.8586,-0.8601,-0.8875,-0.8917,-0.8953,0,0,0,0,0,-0.8754,-0.8752,-0.8702,-0.8702,-0.8691,-0.8546,-0.8554,-0.8525,-0.8519,-0.8391,-0.8364,-0.8417,-0.8278,-0.8273,-0.8357,-0.8475,-0.8218,-0.822,-0.858,-0.8594,-0.8605,-0.8896,0,0,0,0,0,0,-0.8752,-0.8728,-0.8696,-0.8688,-0.8635,-0.8538,-0.8518,-0.8523,-0.8411,-0.8386,-0.8395,-0.8375,-0.8284,-0.8279,-0.8277,-0.8483,-0.8214,-0.8216,-0.8218,-0.859,-0.8601,-0.861,0,0,0,0,0,0,-0.8727,-0.8722,-0.8692,-0.8615,-0.8596,-0.8532,-0.8514,-0.8566,-0.8413,-0.8421,-0.8401,-0.8388,-0.8291,-0.8285,-0.8282,-0.8369,-0.8211,-0.8213,-0.8215,-0.8216,-0.8599,-0.8607,0,0,0,0,0,0,-0.8723,-0.8718,-0.8616,-0.8602,-0.8585,-0.8481,-0.8576,-0.8531,-0.8341,-0.8429,-0.832,-0.8311,-0.83,-0.8294,-0.8287,-0.8376,-0.8371,-0.8211,-0.8213,-0.8214,-0.8215,0,0,0,0,0,0,0,-0.8719,-0.8783,-0.8746,-0.8591,-0.8576,-0.861,-0.8608,-0.8606,-0.8338,-0.833,-0.8322,-0.8315,-0.8197,-0.82,-0.8203,-0.8382,0,0,-0.8211,-0.8212,0,0,0,0,0,0,0,0,-0.8782,-0.8783,-0.8745,-0.8744,-0.8742,-0.861,-0.8608,-0.8606,-0.8337,-0.8331,-0.8324,-0.8318,-0.8198,-0.82,-0.8202,0,0,0,0,0,0,0,0,0,0,0,0,0,0,0,-0.8745,-0.8744,0,-0.861,-0.8608,-0.8607,-0.8336,-0.8331,-0.8325,-0.832,-0.8199,-0.82,-0.8202,0,0,0,0,0,0,0,0,0,0,0,0,0,0,0,0,0,0,0,0,0,0,0,0,0,0,0,0,0,0,0,0,0,0,0,0,0,0,0,0,0,0,0,0,0,0,0,0,0,0,0,0,0,0,0,0,0,0,0,0,0,0,0,0,0,0,0,0,0]}]]]